Flag for U.S.A. Weather past 2 weeks in Honolulu, Hawaii, U.S.A.

Now
79 °F

Passing clouds.


Feels Like: 81 °F
Forecast: 74 / 84 °F
Wind: 12 mph from Northeast

Location: Honolulu International Airport

Current Time: Aug 22, 2014 at 2:55:51 AM

Latest Report: Aug 22, 2014 at 1:53 AM


Visibility: 10 mi

Pressure: 30.00 "Hg

Humidity: 67%

Dew point: 67 °F

Location of HonoluluLocation

Historic Weather in Honolulu — Graph

°F

Honolulu temperature yesterday

Maximum temperature yesterday: 88 °F (at 10:53 AM)
Minimum temperature yesterday: 76 °F (at 5:53 AM)
Average temperature yesterday: 82 °F

Past Weeks' High & Low Weather Summary

 TemperatureHumidityPressure
High89 °F (Aug 7, 1:53 PM)91% (Aug 12, 11:53 PM)30.06 "Hg (Aug 12, 11:53 PM)
Low73 °F (Aug 11, 4:53 AM)40% (Aug 13, 12:53 PM)29.88 "Hg (Aug 8, 4:53 AM)
Average81 °F64%29.98 "Hg
* Reported Aug 7 12:53 AM — Aug 22 12:53 AM, Honolulu, Weather by CustomWeather, © 2014

Note: Actual official high and low records may vary slightly from our data, if they occured in-between our weather recording intervals... More about our weather records

Advertising

Honolulu weather history for previous 24 hours

 ConditionsComfort  
Time TempWeatherWind HumidityBarometerVisibility
12:53 AM
Aug 22
79 °FPassing clouds.14 mph67%30.02 "Hg10 mi
11:53 PM
Aug 21
79 °FPassing clouds.13 mph67%30.03 "Hg10 mi
10:53 PM80 °FPassing clouds.13 mph69%30.03 "Hg10 mi
9:53 PM80 °FLight rain. Partly cloudy.13 mph71%30.03 "Hg10 mi
8:53 PM80 °FLight rain. Partly cloudy.12 mph71%30.02 "Hg10 mi
7:53 PM81 °FPartly cloudy.13 mph67%30.00 "Hg10 mi
6:53 PM82 °FBroken clouds.13 mph63%29.99 "Hg10 mi
5:53 PM84 °FBroken clouds.14 mph61%29.97 "Hg10 mi
4:53 PM83 °FBroken clouds.15 mph65%29.96 "Hg10 mi
3:53 PM84 °FBroken clouds.16 mph63%29.96 "Hg10 mi
2:53 PM86 °FScattered clouds.14 mph57%29.97 "Hg10 mi
1:53 PM86 °FBroken clouds.13 mph57%29.99 "Hg10 mi
12:53 PM85 °FBroken clouds.17 mph59%30.01 "Hg10 mi
11:53 AM85 °FBroken clouds.10 mph59%30.02 "Hg10 mi
10:53 AM88 °FScattered clouds.12 mph54%30.03 "Hg10 mi
9:53 AM85 °FScattered clouds.14 mph59%30.04 "Hg10 mi
8:53 AM84 °FScattered clouds.12 mph61%30.03 "Hg10 mi
7:53 AM81 °FPassing clouds.9 mph67%30.03 "Hg10 mi
6:53 AM77 °FPassing clouds.No wind77%30.01 "Hg10 mi
5:53 AM76 °FClear.5 mph77%29.99 "Hg10 mi
4:53 AM77 °FPassing clouds.5 mph77%29.98 "Hg10 mi
3:53 AM78 °FPassing clouds.3 mph71%29.97 "Hg10 mi
2:53 AM78 °FPassing clouds.8 mph71%29.97 "Hg10 mi
Weather by CustomWeather, © 2014

See weather overviewHow to use our weather pages